owner,sensor,date,latitude,longitude,vertical_datum,sea_water_practical_salinity,qcFlag 
TABS,ioos:station:wmo:42050:1,2017-04-01T00:00:00Z,28.8425,-94.2433,2.0,35.8976,11111222 
TABS,ioos:station:wmo:42050:1,2017-04-01T00:30:00Z,28.8425,-94.2433,2.0,35.8853,11111222 
TABS,ioos:station:wmo:42050:1,2017-04-01T01:00:00Z,28.8425,-94.2433,2.0,35.8622,11111222 
TABS,ioos:station:wmo:42050:1,2017-04-01T01:30:00Z,28.8425,-94.2433,2.0,35.8071,11111222 
TABS,ioos:station:wmo:42050:1,2017-04-01T02:00:00Z,28.8425,-94.2433,2.0,35.7681,11111222 
TABS,ioos:station:wmo:42050:1,2017-04-01T02:30:00Z,28.8425,-94.2433,2.0,35.6737,11111222 
TABS,ioos:station:wmo:42050:1,2017-04-01T03:00:00Z,28.8425,-94.2433,2.0,35.6435,11111222 
TABS,ioos:station:wmo:42050:1,2017-04-01T03:30:00Z,28.8425,-94.2433,2.0,35.6008,11111222 
TABS,ioos:station:wmo:42050:1,2017-04-01T04:00:00Z,28.8425,-94.2433,2.0,35.575,11111222 
TABS,ioos:station:wmo:42050:1,2017-04-01T04:30:00Z,28.8425,-94.2433,2.0,35.6582,11111222 
TABS,ioos:station:wmo:42050:1,2017-04-01T05:00:00Z,28.8425,-94.2433,2.0,35.6998,11111222 
TABS,ioos:station:wmo:42050:1,2017-04-01T05:30:00Z,28.8425,-94.2433,2.0,35.8052,11111222 
TABS,ioos:station:wmo:42050:1,2017-04-01T06:00:00Z,28.8425,-94.2433,2.0,35.9457,11111222 
TABS,ioos:station:wmo:42050:1,2017-04-01T06:30:00Z,28.8425,-94.2433,2.0,35.9697,11111222 
TABS,ioos:station:wmo:42050:1,2017-04-01T07:00:00Z,28.8425,-94.2433,2.0,35.9671,11111222 
TABS,ioos:station:wmo:42050:1,2017-04-01T07:30:00Z,28.8425,-94.2433,2.0,35.9773,11111222 
TABS,ioos:station:wmo:42050:1,2017-04-01T08:00:00Z,28.8425,-94.2433,2.0,35.981,11111222 
TABS,ioos:station:wmo:42050:1,2017-04-01T08:30:00Z,28.8425,-94.2433,2.0,35.9843,11111222 
TABS,ioos:station:wmo:42050:1,2017-04-01T09:00:00Z,28.8425,-94.2433,2.0,35.9978,11111222 
TABS,ioos:station:wmo:42050:1,2017-04-01T09:30:00Z,28.8425,-94.2433,2.0,36.0004,11111222 
TABS,ioos:station:wmo:42050:1,2017-04-01T10:00:00Z,28.8425,-94.2433,2.0,36.0027,11111222 
TABS,ioos:station:wmo:42050:1,2017-04-01T10:30:00Z,28.8425,-94.2433,2.0,36.003,11111222 
TABS,ioos:station:wmo:42050:1,2017-04-01T11:00:00Z,28.8425,-94.2433,2.0,36.007,11111222 
TABS,ioos:station:wmo:42050:1,2017-04-01T11:30:00Z,28.8425,-94.2433,2.0,36.0028,11111222 
TABS,ioos:station:wmo:42050:1,2017-04-01T12:00:00Z,28.8425,-94.2433,2.0,36.0063,11111222 
TABS,ioos:station:wmo:42050:1,2017-04-01T12:30:00Z,28.8425,-94.2433,2.0,36.0066,11111222 
TABS,ioos:station:wmo:42050:1,2017-04-01T13:00:00Z,28.8425,-94.2433,2.0,36.0054,11111222 
TABS,ioos:station:wmo:42050:1,2017-04-01T13:30:00Z,28.8425,-94.2433,2.0,36.0039,11111222 
TABS,ioos:station:wmo:42050:1,2017-04-01T14:00:00Z,28.8425,-94.2433,2.0,36.0037,11111222 
TABS,ioos:station:wmo:42050:1,2017-04-01T14:30:00Z,28.8425,-94.2433,2.0,36.0059,11111222 
TABS,ioos:station:wmo:42050:1,2017-04-01T15:00:00Z,28.8425,-94.2433,2.0,36.005,11111222 
TABS,ioos:station:wmo:42050:1,2017-04-01T15:30:00Z,28.8425,-94.2433,2.0,36.0082,11111222 
TABS,ioos:station:wmo:42050:1,2017-04-01T16:00:00Z,28.8425,-94.2433,2.0,36.007,11111222 
TABS,ioos:station:wmo:42050:1,2017-04-01T16:30:00Z,28.8425,-94.2433,2.0,36.0108,11111222 
TABS,ioos:station:wmo:42050:1,2017-04-01T17:00:00Z,28.8425,-94.2433,2.0,36.0163,11111222 
TABS,ioos:station:wmo:42050:1,2017-04-01T17:30:00Z,28.8425,-94.2433,2.0,36.0155,11111222 
TABS,ioos:station:wmo:42050:1,2017-04-01T18:00:00Z,28.8425,-94.2433,2.0,36.0196,11111222 
TABS,ioos:station:wmo:42050:1,2017-04-01T18:30:00Z,28.8425,-94.2433,2.0,36.0251,11111222 
TABS,ioos:station:wmo:42050:1,2017-04-01T19:00:00Z,28.8425,-94.2433,2.0,36.024,11111222 
TABS,ioos:station:wmo:42050:1,2017-04-01T19:30:00Z,28.8425,-94.2433,2.0,36.0231,11111222 
TABS,ioos:station:wmo:42050:1,2017-04-01T20:00:00Z,28.8425,-94.2433,2.0,36.0251,11111222 
TABS,ioos:station:wmo:42050:1,2017-04-01T20:30:00Z,28.8425,-94.2433,2.0,36.0265,11111222 
TABS,ioos:station:wmo:42050:1,2017-04-01T21:00:00Z,28.8425,-94.2433,2.0,36.029,11111222 
TABS,ioos:station:wmo:42050:1,2017-04-01T21:30:00Z,28.8425,-94.2433,2.0,36.0303,11111222 
TABS,ioos:station:wmo:42050:1,2017-04-01T22:00:00Z,28.8425,-94.2433,2.0,36.0312,11111222 
TABS,ioos:station:wmo:42050:1,2017-04-01T22:30:00Z,28.8425,-94.2433,2.0,36.0343,11111222 
TABS,ioos:station:wmo:42050:1,2017-04-01T23:00:00Z,28.8425,-94.2433,2.0,36.0332,11111222 
TABS,ioos:station:wmo:42050:1,2017-04-01T23:30:00Z,28.8425,-94.2433,2.0,36.0354,11111222 
TABS,ioos:station:wmo:42050:1,2017-04-02T00:00:00Z,28.8425,-94.2433,2.0,36.0369,11111222 
TABS,ioos:station:wmo:42050:1,2017-04-02T00:30:00Z,28.8425,-94.2433,2.0,36.0414,11111222 
TABS,ioos:station:wmo:42050:1,2017-04-02T01:00:00Z,28.8425,-94.2433,2.0,36.0454,11111222 
TABS,ioos:station:wmo:42050:1,2017-04-02T01:30:00Z,28.8425,-94.2433,2.0,36.0554,11111222 
TABS,ioos:station:wmo:42050:1,2017-04-02T02:00:00Z,28.8425,-94.2433,2.0,36.0635,11111222 
TABS,ioos:station:wmo:42050:1,2017-04-02T02:30:00Z,28.8425,-94.2433,2.0,36.0699,11111222 
TABS,ioos:station:wmo:42050:1,2017-04-02T03:00:00Z,28.8425,-94.2433,2.0,36.0747,11111222 
TABS,ioos:station:wmo:42050:1,2017-04-02T03:30:00Z,28.8425,-94.2433,2.0,36.0818,11111222 
TABS,ioos:station:wmo:42050:1,2017-04-02T04:00:00Z,28.8425,-94.2433,2.0,36.0872,11111222 
TABS,ioos:station:wmo:42050:1,2017-04-02T04:30:00Z,28.8425,-94.2433,2.0,36.093,11111222 
TABS,ioos:station:wmo:42050:1,2017-04-02T05:00:00Z,28.8425,-94.2433,2.0,36.0994,11111222 
TABS,ioos:station:wmo:42050:1,2017-04-02T05:30:00Z,28.8425,-94.2433,2.0,36.1011,11111222 
TABS,ioos:station:wmo:42050:1,2017-04-02T06:00:00Z,28.8425,-94.2433,2.0,36.0758,11111222 
TABS,ioos:station:wmo:42050:1,2017-04-02T06:30:00Z,28.8425,-94.2433,2.0,36.0821,11111222 
TABS,ioos:station:wmo:42050:1,2017-04-02T07:00:00Z,28.8425,-94.2433,2.0,36.0919,11111222 
TABS,ioos:station:wmo:42050:1,2017-04-02T07:30:00Z,28.8425,-94.2433,2.0,36.1032,11111222 
TABS,ioos:station:wmo:42050:1,2017-04-02T08:00:00Z,28.8425,-94.2433,2.0,36.1079,11111222 
TABS,ioos:station:wmo:42050:1,2017-04-02T08:30:00Z,28.8425,-94.2433,2.0,36.1092,11111222 
TABS,ioos:station:wmo:42050:1,2017-04-02T09:00:00Z,28.8425,-94.2433,2.0,36.1097,11111222 
TABS,ioos:station:wmo:42050:1,2017-04-02T09:30:00Z,28.8425,-94.2433,2.0,36.1103,11111222 
TABS,ioos:station:wmo:42050:1,2017-04-02T10:00:00Z,28.8425,-94.2433,2.0,36.1088,11111222 
TABS,ioos:station:wmo:42050:1,2017-04-02T10:30:00Z,28.8425,-94.2433,2.0,36.1095,11111222 
TABS,ioos:station:wmo:42050:1,2017-04-02T11:00:00Z,28.8425,-94.2433,2.0,36.1092,11111222 
TABS,ioos:station:wmo:42050:1,2017-04-02T11:30:00Z,28.8425,-94.2433,2.0,36.1091,11111222 
TABS,ioos:station:wmo:42050:1,2017-04-02T12:00:00Z,28.8425,-94.2433,2.0,36.1091,11111222 
TABS,ioos:station:wmo:42050:1,2017-04-02T12:30:00Z,28.8425,-94.2433,2.0,36.1083,11111222 
TABS,ioos:station:wmo:42050:1,2017-04-02T13:00:00Z,28.8425,-94.2433,2.0,36.1061,11111222 
TABS,ioos:station:wmo:42050:1,2017-04-02T13:30:00Z,28.8425,-94.2433,2.0,36.1038,11111222 
TABS,ioos:station:wmo:42050:1,2017-04-02T14:00:00Z,28.8425,-94.2433,2.0,36.1022,11111222 
TABS,ioos:station:wmo:42050:1,2017-04-02T14:30:00Z,28.8425,-94.2433,2.0,36.1014,11111222 
TABS,ioos:station:wmo:42050:1,2017-04-02T15:00:00Z,28.8425,-94.2433,2.0,36.102,11111222 
TABS,ioos:station:wmo:42050:1,2017-04-02T15:30:00Z,28.8425,-94.2433,2.0,36.1003,11111222 
TABS,ioos:station:wmo:42050:1,2017-04-02T16:00:00Z,28.8425,-94.2433,2.0,36.1006,11111222 
TABS,ioos:station:wmo:42050:1,2017-04-02T16:30:00Z,28.8425,-94.2433,2.0,36.0964,11111222 
TABS,ioos:station:wmo:42050:1,2017-04-02T17:00:00Z,28.8425,-94.2433,2.0,36.0973,11111222 
TABS,ioos:station:wmo:42050:1,2017-04-02T17:30:00Z,28.8425,-94.2433,2.0,36.1022,11111222 
TABS,ioos:station:wmo:42050:1,2017-04-02T18:00:00Z,28.8425,-94.2433,2.0,36.1019,11111222 
TABS,ioos:station:wmo:42050:1,2017-04-02T18:30:00Z,28.8425,-94.2433,2.0,36.0998,11111222 
TABS,ioos:station:wmo:42050:1,2017-04-02T19:00:00Z,28.8425,-94.2433,2.0,36.1137,11111222 
TABS,ioos:station:wmo:42050:1,2017-04-02T19:30:00Z,28.8425,-94.2433,2.0,36.1006,11111222 
TABS,ioos:station:wmo:42050:1,2017-04-02T20:00:00Z,28.8425,-94.2433,2.0,36.1011,11111222 
TABS,ioos:station:wmo:42050:1,2017-04-02T20:30:00Z,28.8425,-94.2433,2.0,36.0992,11111222 
TABS,ioos:station:wmo:42050:1,2017-04-02T21:00:00Z,28.8425,-94.2433,2.0,36.0951,11111222 
TABS,ioos:station:wmo:42050:1,2017-04-02T21:30:00Z,28.8425,-94.2433,2.0,36.0967,11111222 
TABS,ioos:station:wmo:42050:1,2017-04-02T22:00:00Z,28.8425,-94.2433,2.0,36.096,11111222 
TABS,ioos:station:wmo:42050:1,2017-04-02T22:30:00Z,28.8425,-94.2433,2.0,36.0943,11111222 
TABS,ioos:station:wmo:42050:1,2017-04-02T23:00:00Z,28.8425,-94.2433,2.0,36.0944,11111222 
TABS,ioos:station:wmo:42050:1,2017-04-02T23:30:00Z,28.8425,-94.2433,2.0,36.0906,11111222 
TABS,ioos:station:wmo:42050:1,2017-04-03T00:00:00Z,28.8425,-94.2433,2.0,36.0904,11111222 
TABS,ioos:station:wmo:42050:1,2017-04-03T00:30:00Z,28.8425,-94.2433,2.0,36.0915,11111222 
TABS,ioos:station:wmo:42050:1,2017-04-03T01:00:00Z,28.8425,-94.2433,2.0,36.0891,11111222 
TABS,ioos:station:wmo:42050:1,2017-04-03T01:30:00Z,28.8425,-94.2433,2.0,36.0939,11111222 
TABS,ioos:station:wmo:42050:1,2017-04-03T02:00:00Z,28.8425,-94.2433,2.0,36.0939,11111222 
TABS,ioos:station:wmo:42050:1,2017-04-03T02:30:00Z,28.8425,-94.2433,2.0,36.0938,11111222 
TABS,ioos:station:wmo:42050:1,2017-04-03T03:00:00Z,28.8425,-94.2433,2.0,36.0925,11111222 
TABS,ioos:station:wmo:42050:1,2017-04-03T03:30:00Z,28.8425,-94.2433,2.0,36.0883,11111222 
TABS,ioos:station:wmo:42050:1,2017-04-03T04:00:00Z,28.8425,-94.2433,2.0,36.0797,11111222 
TABS,ioos:station:wmo:42050:1,2017-04-03T04:30:00Z,28.8425,-94.2433,2.0,35.9982,11111222 
TABS,ioos:station:wmo:42050:1,2017-04-03T05:00:00Z,28.8425,-94.2433,2.0,35.9828,11111222 
TABS,ioos:station:wmo:42050:1,2017-04-03T05:30:00Z,28.8425,-94.2433,2.0,35.9821,11111222 
TABS,ioos:station:wmo:42050:1,2017-04-03T06:00:00Z,28.8425,-94.2433,2.0,35.981,11111222 
TABS,ioos:station:wmo:42050:1,2017-04-03T06:30:00Z,28.8425,-94.2433,2.0,35.9727,11111222 
TABS,ioos:station:wmo:42050:1,2017-04-03T07:00:00Z,28.8425,-94.2433,2.0,35.9698,11111222 
TABS,ioos:station:wmo:42050:1,2017-04-03T07:30:00Z,28.8425,-94.2433,2.0,35.9709,11111222 
TABS,ioos:station:wmo:42050:1,2017-04-03T08:00:00Z,28.8425,-94.2433,2.0,35.9732,11111222 
TABS,ioos:station:wmo:42050:1,2017-04-03T08:30:00Z,28.8425,-94.2433,2.0,35.9711,11111222 
TABS,ioos:station:wmo:42050:1,2017-04-03T09:00:00Z,28.8425,-94.2433,2.0,35.9696,11111222 
TABS,ioos:station:wmo:42050:1,2017-04-03T09:30:00Z,28.8425,-94.2433,2.0,35.9679,11111222 
TABS,ioos:station:wmo:42050:1,2017-04-03T10:00:00Z,28.8425,-94.2433,2.0,35.9569,11111222 
TABS,ioos:station:wmo:42050:1,2017-04-03T10:30:00Z,28.8425,-94.2433,2.0,35.9627,11111222 
TABS,ioos:station:wmo:42050:1,2017-04-03T11:00:00Z,28.8425,-94.2433,2.0,35.9671,11111222 
TABS,ioos:station:wmo:42050:1,2017-04-03T11:30:00Z,28.8425,-94.2433,2.0,35.975,11111222 
TABS,ioos:station:wmo:42050:1,2017-04-03T12:00:00Z,28.8425,-94.2433,2.0,35.9835,11111222 
TABS,ioos:station:wmo:42050:1,2017-04-03T12:30:00Z,28.8425,-94.2433,2.0,35.9844,11111222 
TABS,ioos:station:wmo:42050:1,2017-04-03T13:00:00Z,28.8425,-94.2433,2.0,35.9882,11111222 
TABS,ioos:station:wmo:42050:1,2017-04-03T13:30:00Z,28.8425,-94.2433,2.0,35.9967,11111222 
TABS,ioos:station:wmo:42050:1,2017-04-03T14:00:00Z,28.8425,-94.2433,2.0,36.0039,11111222 
TABS,ioos:station:wmo:42050:1,2017-04-03T14:30:00Z,28.8425,-94.2433,2.0,36.0153,11111222 
TABS,ioos:station:wmo:42050:1,2017-04-03T15:00:00Z,28.8425,-94.2433,2.0,36.016,11111222 
TABS,ioos:station:wmo:42050:1,2017-04-03T15:30:00Z,28.8425,-94.2433,2.0,36.0188,11111222 
TABS,ioos:station:wmo:42050:1,2017-04-03T16:00:00Z,28.8425,-94.2433,2.0,36.0232,11111222 
TABS,ioos:station:wmo:42050:1,2017-04-03T16:30:00Z,28.8425,-94.2433,2.0,36.0259,11111222 
TABS,ioos:station:wmo:42050:1,2017-04-03T17:00:00Z,28.8425,-94.2433,2.0,35.9928,11111222 
TABS,ioos:station:wmo:42050:1,2017-04-03T17:30:00Z,28.8425,-94.2433,2.0,35.9852,11111222 
TABS,ioos:station:wmo:42050:1,2017-04-03T18:00:00Z,28.8425,-94.2433,2.0,35.9682,11111222 
TABS,ioos:station:wmo:42050:1,2017-04-03T18:30:00Z,28.8425,-94.2433,2.0,35.9705,11111222 
TABS,ioos:station:wmo:42050:1,2017-04-03T19:00:00Z,28.8425,-94.2433,2.0,35.9688,11111222 
TABS,ioos:station:wmo:42050:1,2017-04-03T19:30:00Z,28.8425,-94.2433,2.0,35.9709,11111222 
TABS,ioos:station:wmo:42050:1,2017-04-03T20:00:00Z,28.8425,-94.2433,2.0,35.9674,11111222 
TABS,ioos:station:wmo:42050:1,2017-04-03T20:30:00Z,28.8425,-94.2433,2.0,35.9587,11111222 
TABS,ioos:station:wmo:42050:1,2017-04-03T21:00:00Z,28.8425,-94.2433,2.0,35.8914,11111222 
TABS,ioos:station:wmo:42050:1,2017-04-03T21:30:00Z,28.8425,-94.2433,2.0,35.7952,11111222 
TABS,ioos:station:wmo:42050:1,2017-04-03T22:00:00Z,28.8425,-94.2433,2.0,35.8029,11111222 
TABS,ioos:station:wmo:42050:1,2017-04-03T22:30:00Z,28.8425,-94.2433,2.0,35.7806,11111222 
TABS,ioos:station:wmo:42050:1,2017-04-03T23:00:00Z,28.8425,-94.2433,2.0,35.8496,11111222 
TABS,ioos:station:wmo:42050:1,2017-04-03T23:30:00Z,28.8425,-94.2433,2.0,35.9089,11111222 
TABS,ioos:station:wmo:42050:1,2017-04-04T00:00:00Z,28.8425,-94.2433,2.0,35.9411,11111222 
TABS,ioos:station:wmo:42050:1,2017-04-04T00:30:00Z,28.8425,-94.2433,2.0,35.9606,11111222 
TABS,ioos:station:wmo:42050:1,2017-04-04T01:00:00Z,28.8425,-94.2433,2.0,35.9834,11111222 
TABS,ioos:station:wmo:42050:1,2017-04-04T01:30:00Z,28.8425,-94.2433,2.0,36.026,11111222 
TABS,ioos:station:wmo:42050:1,2017-04-04T02:00:00Z,28.8425,-94.2433,2.0,36.0731,11111222 
TABS,ioos:station:wmo:42050:1,2017-04-04T02:30:00Z,28.8425,-94.2433,2.0,36.0782,11111222 
TABS,ioos:station:wmo:42050:1,2017-04-04T03:00:00Z,28.8425,-94.2433,2.0,36.0805,11111222 
TABS,ioos:station:wmo:42050:1,2017-04-04T03:30:00Z,28.8425,-94.2433,2.0,36.0815,11111222 
TABS,ioos:station:wmo:42050:1,2017-04-04T04:00:00Z,28.8425,-94.2433,2.0,36.0785,11111222 
TABS,ioos:station:wmo:42050:1,2017-04-04T04:30:00Z,28.8425,-94.2433,2.0,36.0808,11111222 
TABS,ioos:station:wmo:42050:1,2017-04-04T05:00:00Z,28.8425,-94.2433,2.0,36.0778,11111222 
TABS,ioos:station:wmo:42050:1,2017-04-04T05:30:00Z,28.8425,-94.2433,2.0,36.0771,11111222 
TABS,ioos:station:wmo:42050:1,2017-04-04T06:00:00Z,28.8425,-94.2433,2.0,36.079,11111222 
TABS,ioos:station:wmo:42050:1,2017-04-04T06:30:00Z,28.8425,-94.2433,2.0,36.0754,11111222 
TABS,ioos:station:wmo:42050:1,2017-04-04T07:00:00Z,28.8425,-94.2433,2.0,36.0695,11111222 
TABS,ioos:station:wmo:42050:1,2017-04-04T07:30:00Z,28.8425,-94.2433,2.0,36.0595,11111222 
TABS,ioos:station:wmo:42050:1,2017-04-04T08:00:00Z,28.8425,-94.2433,2.0,36.0415,11111222 
TABS,ioos:station:wmo:42050:1,2017-04-04T08:30:00Z,28.8425,-94.2433,2.0,36.0341,11111222 
TABS,ioos:station:wmo:42050:1,2017-04-04T09:00:00Z,28.8425,-94.2433,2.0,36.0275,11111222 
TABS,ioos:station:wmo:42050:1,2017-04-04T09:30:00Z,28.8425,-94.2433,2.0,36.0224,11111222 
TABS,ioos:station:wmo:42050:1,2017-04-04T10:00:00Z,28.8425,-94.2433,2.0,36.0226,11111222 
TABS,ioos:station:wmo:42050:1,2017-04-04T10:30:00Z,28.8425,-94.2433,2.0,36.025,11111222 
TABS,ioos:station:wmo:42050:1,2017-04-04T11:00:00Z,28.8425,-94.2433,2.0,36.0268,11111222 
TABS,ioos:station:wmo:42050:1,2017-04-04T11:30:00Z,28.8425,-94.2433,2.0,36.0431,11111222 
TABS,ioos:station:wmo:42050:1,2017-04-04T12:00:00Z,28.8425,-94.2433,2.0,36.0614,11111222 
TABS,ioos:station:wmo:42050:1,2017-04-04T12:30:00Z,28.8425,-94.2433,2.0,36.0714,11111222 
TABS,ioos:station:wmo:42050:1,2017-04-04T13:00:00Z,28.8425,-94.2433,2.0,36.0753,11111222 
TABS,ioos:station:wmo:42050:1,2017-04-04T13:30:00Z,28.8425,-94.2433,2.0,36.0775,11111222 
TABS,ioos:station:wmo:42050:1,2017-04-04T14:00:00Z,28.8425,-94.2433,2.0,36.0771,11111222 
TABS,ioos:station:wmo:42050:1,2017-04-04T14:30:00Z,28.8425,-94.2433,2.0,36.0768,11111222 
TABS,ioos:station:wmo:42050:1,2017-04-04T15:00:00Z,28.8425,-94.2433,2.0,36.0768,11111222 
TABS,ioos:station:wmo:42050:1,2017-04-04T15:30:00Z,28.8425,-94.2433,2.0,36.0748,11111222 
TABS,ioos:station:wmo:42050:1,2017-04-04T16:00:00Z,28.8425,-94.2433,2.0,36.0715,11111222 
TABS,ioos:station:wmo:42050:1,2017-04-04T16:30:00Z,28.8425,-94.2433,2.0,36.0741,11111222 
TABS,ioos:station:wmo:42050:1,2017-04-04T17:00:00Z,28.8425,-94.2433,2.0,36.0672,11111222 
TABS,ioos:station:wmo:42050:1,2017-04-04T17:30:00Z,28.8425,-94.2433,2.0,36.0592,11111222 
TABS,ioos:station:wmo:42050:1,2017-04-04T18:00:00Z,28.8425,-94.2433,2.0,36.0614,11111222 
TABS,ioos:station:wmo:42050:1,2017-04-04T18:30:00Z,28.8425,-94.2433,2.0,36.0587,11111222 
TABS,ioos:station:wmo:42050:1,2017-04-04T19:00:00Z,28.8425,-94.2433,2.0,36.0583,11111222 
TABS,ioos:station:wmo:42050:1,2017-04-04T19:30:00Z,28.8425,-94.2433,2.0,36.0618,11111222 
TABS,ioos:station:wmo:42050:1,2017-04-04T20:00:00Z,28.8425,-94.2433,2.0,36.0451,11111222 
TABS,ioos:station:wmo:42050:1,2017-04-04T20:30:00Z,28.8425,-94.2433,2.0,36.0473,11111222 
TABS,ioos:station:wmo:42050:1,2017-04-04T21:00:00Z,28.8425,-94.2433,2.0,36.0512,11111222 
TABS,ioos:station:wmo:42050:1,2017-04-04T21:30:00Z,28.8425,-94.2433,2.0,36.0474,11111222 
TABS,ioos:station:wmo:42050:1,2017-04-04T22:00:00Z,28.8425,-94.2433,2.0,36.046,11111222 
TABS,ioos:station:wmo:42050:1,2017-04-04T22:30:00Z,28.8425,-94.2433,2.0,36.0477,11111222 
TABS,ioos:station:wmo:42050:1,2017-04-04T23:00:00Z,28.8425,-94.2433,2.0,36.0513,11111222 
TABS,ioos:station:wmo:42050:1,2017-04-04T23:30:00Z,28.8425,-94.2433,2.0,36.0493,11111222 
TABS,ioos:station:wmo:42050:1,2017-04-05T00:00:00Z,28.8425,-94.2433,2.0,36.0509,11111222 
TABS,ioos:station:wmo:42050:1,2017-04-05T00:30:00Z,28.8425,-94.2433,2.0,36.0511,11111222 
TABS,ioos:station:wmo:42050:1,2017-04-05T01:00:00Z,28.8425,-94.2433,2.0,36.0509,11111222 
TABS,ioos:station:wmo:42050:1,2017-04-05T01:30:00Z,28.8425,-94.2433,2.0,36.0525,11111222 
TABS,ioos:station:wmo:42050:1,2017-04-05T02:00:00Z,28.8425,-94.2433,2.0,36.0518,11111222 
TABS,ioos:station:wmo:42050:1,2017-04-05T02:30:00Z,28.8425,-94.2433,2.0,36.0501,11111222 
TABS,ioos:station:wmo:42050:1,2017-04-05T03:00:00Z,28.8425,-94.2433,2.0,36.0495,11111222 
TABS,ioos:station:wmo:42050:1,2017-04-05T03:30:00Z,28.8425,-94.2433,2.0,36.0476,11111222 
TABS,ioos:station:wmo:42050:1,2017-04-05T04:00:00Z,28.8425,-94.2433,2.0,36.0474,11111222 
TABS,ioos:station:wmo:42050:1,2017-04-05T04:30:00Z,28.8425,-94.2433,2.0,36.0468,11111222 
TABS,ioos:station:wmo:42050:1,2017-04-05T05:00:00Z,28.8425,-94.2433,2.0,36.0468,11111222 
TABS,ioos:station:wmo:42050:1,2017-04-05T05:30:00Z,28.8425,-94.2433,2.0,36.0463,11111222 
TABS,ioos:station:wmo:42050:1,2017-04-05T06:00:00Z,28.8425,-94.2433,2.0,36.0452,11111222 
TABS,ioos:station:wmo:42050:1,2017-04-05T06:30:00Z,28.8425,-94.2433,2.0,36.0425,11111222 
TABS,ioos:station:wmo:42050:1,2017-04-05T07:00:00Z,28.8425,-94.2433,2.0,36.0438,11111222 
TABS,ioos:station:wmo:42050:1,2017-04-05T07:30:00Z,28.8425,-94.2433,2.0,36.0259,11111222 
TABS,ioos:station:wmo:42050:1,2017-04-05T08:00:00Z,28.8425,-94.2433,2.0,36.0057,11111222 
TABS,ioos:station:wmo:42050:1,2017-04-05T08:30:00Z,28.8425,-94.2433,2.0,35.9634,11111222 
TABS,ioos:station:wmo:42050:1,2017-04-05T09:00:00Z,28.8425,-94.2433,2.0,35.9577,11111222 
TABS,ioos:station:wmo:42050:1,2017-04-05T09:30:00Z,28.8425,-94.2433,2.0,35.932,11111222 
TABS,ioos:station:wmo:42050:1,2017-04-05T10:00:00Z,28.8425,-94.2433,2.0,35.6658,11111222 
TABS,ioos:station:wmo:42050:1,2017-04-05T10:30:00Z,28.8425,-94.2433,2.0,35.6706,11111222 
TABS,ioos:station:wmo:42050:1,2017-04-05T11:00:00Z,28.8425,-94.2433,2.0,35.5927,11111222 
TABS,ioos:station:wmo:42050:1,2017-04-05T11:30:00Z,28.8425,-94.2433,2.0,35.4504,11111222 
TABS,ioos:station:wmo:42050:1,2017-04-05T12:00:00Z,28.8425,-94.2433,2.0,35.4456,11111222 
TABS,ioos:station:wmo:42050:1,2017-04-05T12:30:00Z,28.8425,-94.2433,2.0,35.4773,11111222 
TABS,ioos:station:wmo:42050:1,2017-04-05T13:00:00Z,28.8425,-94.2433,2.0,35.4801,11111222 
TABS,ioos:station:wmo:42050:1,2017-04-05T13:30:00Z,28.8425,-94.2433,2.0,35.4828,11111222 
TABS,ioos:station:wmo:42050:1,2017-04-05T14:00:00Z,28.8425,-94.2433,2.0,35.5264,11111222 
TABS,ioos:station:wmo:42050:1,2017-04-05T14:30:00Z,28.8425,-94.2433,2.0,35.597,11111222 
TABS,ioos:station:wmo:42050:1,2017-04-05T15:00:00Z,28.8425,-94.2433,2.0,35.6618,11111222 
TABS,ioos:station:wmo:42050:1,2017-04-05T15:30:00Z,28.8425,-94.2433,2.0,35.6638,11111222 
TABS,ioos:station:wmo:42050:1,2017-04-05T16:00:00Z,28.8425,-94.2433,2.0,35.7228,11111222 
TABS,ioos:station:wmo:42050:1,2017-04-05T16:30:00Z,28.8425,-94.2433,2.0,35.6648,11111222 
TABS,ioos:station:wmo:42050:1,2017-04-05T17:00:00Z,28.8425,-94.2433,2.0,35.6178,11111222 
TABS,ioos:station:wmo:42050:1,2017-04-05T17:30:00Z,28.8425,-94.2433,2.0,35.627,11111222 
TABS,ioos:station:wmo:42050:1,2017-04-05T18:00:00Z,28.8425,-94.2433,2.0,35.6146,11111222 
TABS,ioos:station:wmo:42050:1,2017-04-05T18:30:00Z,28.8425,-94.2433,2.0,35.5814,11111222 
TABS,ioos:station:wmo:42050:1,2017-04-05T19:00:00Z,28.8425,-94.2433,2.0,35.6097,11111222 
TABS,ioos:station:wmo:42050:1,2017-04-05T19:30:00Z,28.8425,-94.2433,2.0,35.6025,11111222 
TABS,ioos:station:wmo:42050:1,2017-04-05T20:00:00Z,28.8425,-94.2433,2.0,35.5695,11111222 
TABS,ioos:station:wmo:42050:1,2017-04-05T20:30:00Z,28.8425,-94.2433,2.0,35.4745,11111222 
TABS,ioos:station:wmo:42050:1,2017-04-05T21:00:00Z,28.8425,-94.2433,2.0,35.4271,11111222 
TABS,ioos:station:wmo:42050:1,2017-04-05T21:30:00Z,28.8425,-94.2433,2.0,35.4276,11111222 
TABS,ioos:station:wmo:42050:1,2017-04-05T22:00:00Z,28.8425,-94.2433,2.0,35.3632,11111222 
TABS,ioos:station:wmo:42050:1,2017-04-05T22:30:00Z,28.8425,-94.2433,2.0,35.4002,11111222 
TABS,ioos:station:wmo:42050:1,2017-04-05T23:00:00Z,28.8425,-94.2433,2.0,35.4309,11111222 
TABS,ioos:station:wmo:42050:1,2017-04-05T23:30:00Z,28.8425,-94.2433,2.0,35.4443,11111222 
TABS,ioos:station:wmo:42050:1,2017-04-06T00:00:00Z,28.8425,-94.2433,2.0,35.4404,11111222 
TABS,ioos:station:wmo:42050:1,2017-04-06T00:30:00Z,28.8425,-94.2433,2.0,35.3956,11111222 
TABS,ioos:station:wmo:42050:1,2017-04-06T01:00:00Z,28.8425,-94.2433,2.0,35.339,11111222 
TABS,ioos:station:wmo:42050:1,2017-04-06T01:30:00Z,28.8425,-94.2433,2.0,35.2471,11111222 
TABS,ioos:station:wmo:42050:1,2017-04-06T02:00:00Z,28.8425,-94.2433,2.0,35.2537,11111222 
TABS,ioos:station:wmo:42050:1,2017-04-06T02:30:00Z,28.8425,-94.2433,2.0,35.279,11111222 
TABS,ioos:station:wmo:42050:1,2017-04-06T03:00:00Z,28.8425,-94.2433,2.0,35.2067,11111222 
TABS,ioos:station:wmo:42050:1,2017-04-06T03:30:00Z,28.8425,-94.2433,2.0,35.1991,11111222 
TABS,ioos:station:wmo:42050:1,2017-04-06T04:00:00Z,28.8425,-94.2433,2.0,35.1983,11111222 
TABS,ioos:station:wmo:42050:1,2017-04-06T04:30:00Z,28.8425,-94.2433,2.0,35.2274,11111222 
TABS,ioos:station:wmo:42050:1,2017-04-06T05:00:00Z,28.8425,-94.2433,2.0,35.2312,11111222 
TABS,ioos:station:wmo:42050:1,2017-04-06T05:30:00Z,28.8425,-94.2433,2.0,35.1589,11111222 
TABS,ioos:station:wmo:42050:1,2017-04-06T06:00:00Z,28.8425,-94.2433,2.0,35.1373,11111222 
TABS,ioos:station:wmo:42050:1,2017-04-06T06:30:00Z,28.8425,-94.2433,2.0,35.1633,11111222 
TABS,ioos:station:wmo:42050:1,2017-04-06T07:00:00Z,28.8425,-94.2433,2.0,35.1671,11111222 
TABS,ioos:station:wmo:42050:1,2017-04-06T07:30:00Z,28.8425,-94.2433,2.0,35.1726,11111222 
TABS,ioos:station:wmo:42050:1,2017-04-06T08:00:00Z,28.8425,-94.2433,2.0,35.1836,11111222 
TABS,ioos:station:wmo:42050:1,2017-04-06T08:30:00Z,28.8425,-94.2433,2.0,35.1812,11111222 
TABS,ioos:station:wmo:42050:1,2017-04-06T09:00:00Z,28.8425,-94.2433,2.0,35.1846,11111222 
TABS,ioos:station:wmo:42050:1,2017-04-06T09:30:00Z,28.8425,-94.2433,2.0,35.1936,11111222 
TABS,ioos:station:wmo:42050:1,2017-04-06T10:00:00Z,28.8425,-94.2433,2.0,35.1865,11111222 
TABS,ioos:station:wmo:42050:1,2017-04-06T10:30:00Z,28.8425,-94.2433,2.0,35.1789,11111222 
TABS,ioos:station:wmo:42050:1,2017-04-06T11:00:00Z,28.8425,-94.2433,2.0,35.1765,11111222 
TABS,ioos:station:wmo:42050:1,2017-04-06T11:30:00Z,28.8425,-94.2433,2.0,35.1769,11111222 
TABS,ioos:station:wmo:42050:1,2017-04-06T12:00:00Z,28.8425,-94.2433,2.0,35.1747,11111222 